www.pogodaiklimat.ru

Погода и климат >> Архив погоды >> Пакистан >> Джейкобабад


ПОГОДА в Джейкобабаде

  • Прогноз погоды в Джейкобабаде
  • Монитор погоды в Джейкобабаде

АРХИВ ПОГОДЫ в Джейкобабаде

Время (UTC), дата Ветер
(напр.,м/с)
 
Видим.   Явления Облачность Т
(С)
Тd
(С)
f
(%)
Тe
(С)
Тes
(С)
Комфортность P
(гПа)
Po
(гПа)
Тmin
(С)
Tmax
(С)
R
(мм)
R24
(мм)
S
(см)
21 15.09 штиль 0 4000 м мгла ясно +32.0 +25.8 70 +47 +47 опасность
перегрева
1002.3 1000.0
00 16.09 штиль 0 4000 м мгла ясно +30.0 +25.8 78 +45 +45 опасность
перегрева
1002.0 995.7
03 16.09 штиль 0 4000 м мгла ясно +30.0 +26.5 82 +46 +50 опасность
перегрева
1003.5 997.2 +29.1
06 16.09 штиль 0 4000 м мгла ясно +34.0 +27.2 68 +53 +73 опасность
перегрева
1003.9 997.8
09 16.09 штиль 0 4000 м мгла ясно +36.5 +27.0 58 +54 +74 опасность
перегрева
1001.3 1000.0
12 16.09 штиль 0 4000 м мгла ясно +37.0 +26.8 56 +54 +57 опасность
перегрева
999.1 993.0 +39.1
15 16.09 штиль 0 4000 м мгла ясно +34.0 +26.5 65 +51 +51 опасность
перегрева
999.4 1000.0
18 16.09 штиль 0 4000 м мгла ясно +33.0 +26.1 67 +49 +49 опасность
перегрева
1000.1 993.9
21 16.09 штиль 0 4000 м мгла ясно +32.0 +25.8 70 +47 +47 опасность
перегрева
999.4 993.2
00 17.09 штиль 0 4000 м мгла ясно +30.0 +25.8 78 +45 +45 опасность
перегрева
1001.0 994.7
03 17.09 штиль 0 4000 м мгла ясно +29.5 +26.7 85 +46 +50 опасность
перегрева
1002.9 996.6 +28.1
06 17.09 штиль 0 4000 м мгла ясно +33.0 +26.8 70 +51 +71 опасность
перегрева
1003.7 997.5
09 17.09 штиль 0 4000 м мгла ясно +36.0 +26.4 58 +53 +72 опасность
перегрева
1001.5 1000.0
12 17.09 штиль 0 4000 м мгла ясно +36.5 +26.2 56 +53 +56 опасность
перегрева
999.8 993.7 +38.5
15 17.09 штиль 0 4000 м мгла ясно +33.5 +25.9 65 +49 +49 опасность
перегрева
1000.7 994.5
18 17.09 штиль 0 4000 м мгла ясно +32.5 +26.3 70 +49 +49 опасность
перегрева
1002.7 996.5
21 17.09 штиль 0 4000 м мгла ясно +32.0 +25.8 70 +47 +47 опасность
перегрева
1002.5 1000.0
00 18.09 штиль 0 4000 м мгла ясно +29.5 +26.0 81 +44 +44 опасность
перегрева
1004.1 997.8
03 18.09 штиль 0 4000 м мгла ясно +29.0 +26.2 85 +44 +48 опасность
перегрева
1006.7 1000.4 +28.1
06 18.09 штиль 0 4000 м мгла ясно +33.5 +27.4 71 +53 +73 опасность
перегрева
1007.7 1001.5
09 18.09 штиль 0 4000 м мгла ясно +36.5 +27.0 58 +54 +74 опасность
перегрева
1005.5 999.3
12 18.09 штиль 0 4000 м мгла ясно +36.5 +27.0 58 +54 +57 опасность
перегрева
1003.3 997.2 +38.1
15 18.09 штиль 0 4000 м мгла ясно +34.0 +27.2 68 +53 +53 опасность
перегрева
1003.6 1000.0
18 18.09 штиль 0 4000 м мгла ясно +33.0 +26.1 67 +49 +49 опасность
перегрева
1006.2 1010.0
21 18.09 штиль 0 4000 м мгла ясно +32.0 +25.8 70 +47 +47 опасность
перегрева
1005.3 999.0
00 19.09 штиль 0 4000 м мгла ясно +30.0 +25.8 78 +45 +45 опасность
перегрева
1006.1 999.8
03 19.09 штиль 0 4000 м мгла ясно +29.0 +26.2 85 +44 +48 опасность
перегрева
1007.9 1001.6 +27.1
06 19.09 штиль 0 4000 м мгла ясно +34.0 +27.2 68 +53 +73 опасность
перегрева
1008.8 1002.7
09 19.09 штиль 0 4000 м мгла ясно +36.5 +27.0 58 +54 +73 опасность
перегрева
1006.5 1000.0
12 19.09 штиль 0 4000 м мгла ясно +38.0 +26.4 52 +54 +57 опасность
перегрева
1004.3 998.2 +39.0
15 19.09 штиль 0 4000 м мгла ясно +35.0 +26.8 63 +53 +53 опасность
перегрева
1004.7 1000.0
18 19.09 штиль 0 4000 м мгла ясно +33.0 +26.1 67 +49 +49 опасность
перегрева
1005.8 999.6
21 19.09 штиль 0 4000 м мгла ясно +32.0 +25.8 70 +47 +47 опасность
перегрева
1005.5 1000.0
00 20.09 штиль 0 4000 м мгла ясно +29.0 +26.2 85 +44 +44 опасность
перегрева
1005.9 999.6
03 20.09 штиль 0 4000 м мгла ясно +29.0 +26.2 85 +44 +48 опасность
перегрева
1007.3 1001.0 +27.1
06 20.09 штиль 0 4000 м мгла ясно +35.0 +24.5 55 +48 +68 опасность
перегрева
1007.5 1001.4
09 20.09 штиль 0 4000 м мгла ясно +36.5 +24.6 51 +49 +69 опасность
перегрева
1005.0 1000.0
12 20.09 штиль 0 4000 м мгла ясно +37.0 +25.2 51 +51 +54 опасность
перегрева
1002.7 996.6 +38.0
15 20.09 штиль 0 4000 м мгла ясно +35.0 +24.5 55 +48 +48 опасность
перегрева
1003.8 1000.0
18 20.09 штиль 0 4000 м мгла ясно +33.0 +24.6 61 +46 +46 опасность
перегрева
1005.8 999.6
21 20.09 штиль 0 4000 м мгла ясно +32.0 +25.0 67 +46 +46 опасность
перегрева
1005.3 999.0
00 21.09 штиль 0 4000 м мгла ясно +29.5 +26.0 81 +44 +44 опасность
перегрева
1005.8 999.5
03 21.09 штиль 0 4000 м мгла ясно +29.5 +26.0 81 +44 +48 опасность
перегрева
1006.4 1000.1 +27.5
06 21.09 В 1 4000 м мгла ясно +33.5 +25.1 62 +48 +66 опасность
перегрева
1007.9 1001.7
09 21.09 В 1 4000 м мгла ясно +36.0 +24.9 53 +49 +67 опасность
перегрева
1004.9 1000.0
12 21.09 В 1 4000 м мгла ясно +37.5 +25.0 49 +51 +53 опасность
перегрева
1003.1 997.0 +38.0
15 21.09 штиль 0 4000 м мгла ясно +33.0 +26.8 70 +51 +51 опасность
перегрева
1003.9 1000.0
18 21.09 штиль 0 4000 м мгла ясно +32.0 +26.5 73 +49 +49 опасность
перегрева
1005.7 999.5
21 21.09 штиль 0 4000 м мгла ясно +31.0 +26.1 75 +46 +46 опасность
перегрева
1005.4 999.1
00 22.09 штиль 0 4000 м мгла ясно +30.0 +26.5 82 +46 +46 опасность
перегрева
1006.0 999.7
03 22.09 штиль 0 4000 м мгла ясно +29.5 +25.3 78 +43 +46 опасность
перегрева
1007.5 1001.2 +28.1
06 22.09 СВ 1 4000 м мгла ясно +34.0 +24.9 59 +47 +65 опасность
перегрева
1008.3 1002.2
09 22.09 СВ 1 4000 м мгла ясно +37.0 +24.4 49 +49 +67 опасность
перегрева
1006.0 1000.0
12 22.09 СВ 1 4000 м мгла ясно +37.0 +24.4 49 +49 +52 опасность
перегрева
1004.2 998.1 +39.0
15 22.09 штиль 0 4000 м мгла ясно +33.0 +26.1 67 +49 +49 опасность
перегрева
1005.5 1000.0

 

Местоположение метеостанции Джейкобабад (Пакистан): широта 28.30 долгота 68.47 высота над уровнем моря 56 м.

В архиве по умолчанию представлена погода в Джейкобабаде за последнюю неделю. Архивные данные за месяц целиком и за предыдущие месяцы, начиная с января 2011 года, Вы можете получить, выбрав интересующий диапазон дат из раскрывающегося списка и нажав кнопку "Ввод!".


*Определитесь, кто Вы:
робот инопланетянин человек

Внимание! Время в таблицах - всемирное. Для получения местного времени необходимо прибавить поправку, которая равна 5 ч.

Смотрите также архив погоды в соседних городах и на ближайших метеорологических станциях:

Погода в Суккуре (Пакистан) (72 км)
Погода в Рохри (Пакистан) (82 км)
Погода в Ларкане (Пакистан) (88 км)
Погода в Мохенджо-Даро (Пакистан) (114 км)
Погода в Сиби (Пакистан) (150 км)
Погода в Пад Идан (Пакистан) (165 км)
Погода в Рахим Яр Хан (Пакистан) (182 км)
Погода в Хуздаре (Пакистан) (188 км)
Погода в Калате (Пакистан) (202 км)
Погода в Бархане (Пакистан) (214 км)

Пояснения к столбцам:

Ветер - указаны скорость ветра в м/с - средняя за 10 мин, порывы в срок и между сроками (в фигурных скобках) и направление, откуда дует ветер: С - северный, СВ - северо-восточный, В - восточный, ЮВ - юго-восточный, Ю - южный, ЮЗ - юго-западный, З - западный, СЗ - северо-западный.
Видимость - горизонтальная дальность видимости в метрах или километрах. При видимости от 1 до 10 км при отсутствии осадков обычно наблюдается дымка, при ухудшении видимости до 1 км и менее - туман. В сухую погоду видимость может ухудшаться дымом, пылью или мглою.
Явления - указаны атмосферные явления, наблюдавшиеся в срок или в последний час перед сроком; фигурными скобками обозначены явления, наблюдавшиеся между сроками (за 1-3 часа до срока); квадратными скобками обозначены град или гололедные отложения с указанием их диаметра в мм.
Облачность - указаны через наклонную черту общая и нижняя облачность в баллах и высота нижней границы облаков в метрах; квадратными скобками обозначены формы облаков: Ci - перистые, Cs - перисто-слоистые, Cc - перисто-кучевые, Ac - высококучевые, As - высокослоистые, Sc - слоисто-кучевые, Ns - слоисто-дождевые, Cu - кучевые, Cb - кучево-дождевые. Подробнее классификацию облаков см. в Атласе облаков (PDF).
T - Температура воздуха - температура, измеренная на высоте 2 м над землей.
Td - Температура точки росы - температура, при понижении до которой содержащийся в воздухе водяной пар достигнет насыщения.
f - Относительная влажность воздуха - влажноcть воздуха, измеренная на высоте 2 м над землей.
Te - Эффективная температура - температура, которую ощущает одетый по сезону человек в тени. Характеристика душности погоды. При расчете учитывается влияние влажности воздуха и скорости ветра на теплоощущения человека.
Tes - Эффективная температура на солнце - температура, которую ощущает человек, с поправкой на солнечный нагрев. Характеристика знойности погоды. Зависит от высоты солнца над горизонтом, облачности и скорости ветра. Ночью, в пасмурную погоду, а также при ветре 12 м/с и более поправка равна нулю.
P - Атмосферное давление - приведенное к уровню моря атмосферное давление.
Po - Атмосферное давление - измеренное на уровне метеостанции атмосферное давление.
Tmin - Минимальная температура - минимум температуры воздуха на высоте 2 м над землей.
Tmax - Максимальная температура - максимум температуры воздуха на высоте 2 м над землей.
R - Количество осадков - Количество выпавших осадков за период времени, мм. При наведении курсора мыши на число - период времени, за который выпало указанное количество осадков.
R24 - Количество осадков - Количество выпавших осадков за 24 часа, мм.
S - Снежный покров - Высота снежного покрова, см. При наведении курсора мыши на число - состояние снежного покрова и степень покрытия местности в баллах.